Regional Weather Roundup
Issued by NWS San Angelo, TX

Home | Current Version | Previous Version | Text Only | Print | Product List | Glossary On
Versions: 1 2 3 4 5 6 7 8 9 10 11 12 13 14 15 16 17 18 19 20 21 22 23 24 25 26 27 28 29 30 31 32 33 34 35 36 37 38 39 40 41 42 43 44 45 46 47 48 49 50
443
ASUS44 KSJT 091611
RWRSJT
WEST CENTRAL TEXAS REGIONAL WEATHER ROUNDUP
NATIONAL WEATHER SERVICE SAN ANGELO TX
1000 AM CST TUE FEB 09 2016

NOTE: "FAIR" INDICATES FEW OR NO CLOUDS BELOW 12,000 FEET WITH NO
SIGNIFICANT WEATHER AND/OR OBSTRUCTIONS TO VISIBILITY.

TXZ049-054-064>066-071>073-076>078-098-099-113-114-127-128-139-140-
154-155-168>170-091700
...LOCATIONS ACROSS WEST CENTRAL TEXAS...

CITY           SKY/WX    TMP DP  RH WIND       PRES   REMARKS
SAN ANGELO     SUNNY     52  20  28 W9        30.41F
ABILENE        SUNNY     53  25  33 NW13      30.36S
DYESS AFB      SUNNY     55  25  30 NW13      30.35S
JUNCTION       SUNNY     49  19  30 W6        30.42S
SWEETWATER     SUNNY     55  20  25 W14       30.40S
BROWNWOOD      SUNNY     46  23  39 MISG      30.38F
COLEMAN        SUNNY     56  24  28 W12       30.37S
SONORA         SUNNY     50  21  32 CALM      30.47S
OZONA          FAIR      52  21  30 CALM      30.46F
BRADY          NOT AVBL
$$

TEXAS PANHANDLE/OKLAHOMA PANHANDLE

CITY           SKY/WX    TMP DP  RH WIND       PRES   REMARKS
AMARILLO       SUNNY     44  21  40 W16       30.38R WCI  37
BORGER         SUNNY     49  23  36 W16       30.34S
CANADIAN       SUNNY     51  29  43 W8        30.28S
DALHART        SUNNY     51  19  28 W17       30.38R
DUMAS          SUNNY     49  21  33 W24       30.36R
GUYMON         NOT AVBL
HEREFORD       NOT AVBL
PAMPA          SUNNY     50  25  37 W16       30.33S
PERRYTON       SUNNY     53  30  41 NW18G24   30.29R
$$

SOUTHERN PANHANDLE/SOUTH PLAINS/ROLLING PLAINS

CITY           SKY/WX    TMP DP  RH WIND       PRES   REMARKS
LUBBOCK        MOSUNNY   50  21  32 W10       30.38S
SNYDER           N/A     54  20  26 W10       30.40R
CHILDRESS      SUNNY     52  26  36 NW17G24   30.31F
SEMINOLE       SUNNY     46  19  32 W7        30.43F
$$

PERMIAN BASIN

CITY           SKY/WX    TMP DP  RH WIND       PRES   REMARKS
MIDLAND        SUNNY     51  17  26 NW8       30.44R
ODESSA         SUNNY     51  18  27 NW6       30.44R
WINK           SUNNY     44  16  32 CALM      30.44S
$$

FAR WEST/SOUTHWEST MOUNTAINS/TRANS PECOS

CITY           SKY/WX    TMP DP  RH WIND       PRES   REMARKS
ALPINE         SUNNY     46  16  29 CALM      30.50S
DRYDEN         NOT AVBL
EL PASO        SUNNY     40  16  37 CALM      30.40F
FORT STOCKTON  SUNNY     48  22  35 SW5       30.45R
GUADALUPE PASS NOT AVBL
MARFA          SUNNY     48  16  27 VRB3      30.45R
PECOS          SUNNY     38  18  45 CALM      30.46F
$$

DALLAS/FORT WORTH METROPLEX

CITY           SKY/WX    TMP DP  RH WIND       PRES   REMARKS
DFW AIRPORT    MOSUNNY   50  14  23 W13       30.30S
FTW MEACHAM    SUNNY     50  17  27 W10       30.31F
DAL-EXECUTIVE  SUNNY     47  14  26 W13       30.30S
GRAND PRAIRIE  SUNNY     48  10  21 W9G16     30.33S
ADDISON        SUNNY     48  16  27 NW8G16    30.30R
MESQUITE       SUNNY     48  14  25 W9        30.31R
LANCASTER      SUNNY     47  11  23 W12       30.33S
$$

NORTH CENTRAL TEXAS

CITY           SKY/WX    TMP DP  RH WIND       PRES   REMARKS
SHRMAN/DENISON SUNNY     47  18  30 NW9       30.29R
GAINESVILLE    SUNNY     46  18  32 W13       30.32R
BRIDGEPORT     SUNNY     49  23  36 W7        30.33S
DENTON         SUNNY     48  19  31 NW10      30.31R
WAXAHACHIE     SUNNY     48  18  31 W10       30.33F
GRANBURY       SUNNY     54  16  23 W10G17    30.35S
$$

WESTERN NORTH TEXAS

CITY           SKY/WX    TMP DP  RH WIND       PRES   REMARKS
WICHITA FALLS  SUNNY     48  25  40 W10       30.30F
VERNON         SUNNY     46  24  41 NW7       30.32F
BRECKENRIDGE   SUNNY     53  24  32 W9G16     30.34F
COMANCHE       SUNNY     54  24  31 W8        30.35F
$$

CENTRAL AND SOUTH CENTRAL TEXAS

CITY           SKY/WX    TMP DP  RH WIND       PRES   REMARKS
AUSTIN/BERGSTM SUNNY     53  19  26 W5        30.39S
WACO           SUNNY     51  16  24 W9        30.36S
HILLSBORO      SUNNY     48  18  29 W10       30.34F
TEMPLE         SUNNY     52  18  26 W8        30.37R
KILLEEN-GRAY   SUNNY     53  16  23 NW14      30.35S
FORT HOOD      SUNNY     53  15  22 W8        30.34S
GEORGETOWN     SUNNY     54  19  26 W8        30.38R
LAGO VISTA     FAIR      49  19  30 W9        30.38S
SAN MARCOS     SUNNY     54  21  28 W6        30.42R
NEW BRAUNFELS  SUNNY     57  17  21 NW12      30.40R
RANDOLPH AFB   SUNNY     55  21  26 NW8       30.41R
SAN ANTONIO    SUNNY     56  23  27 NW9       30.42R
STINSON        SUNNY     58  22  24 VRB5      30.41R
PLEASANTON     NOT AVBL
LA GRANGE      SUNNY     51  22  32 N5        30.38F
GIDDINGS       SUNNY     52  14  22 N5        30.42F
$$

EAST TEXAS

CITY           SKY/WX    TMP DP  RH WIND       PRES   REMARKS
PARIS          SUNNY     45  18  33 NW17G25   30.25R WCI  37
CLARKSVILLE    NOT AVBL
TYLER          SUNNY     48  15  26 NW12      30.28S
LONGVIEW       SUNNY     47  16  29 NW12      30.26F
PALESTINE      SUNNY     47  19  33 W9        30.33S
NACOGDOCHES    SUNNY     48  18  29 NW16G23   30.30S
$$

TEXAS HILL COUNTRY AND EDWARDS PLATEAU

CITY           SKY/WX    TMP DP  RH WIND       PRES   REMARKS
LLANO          SUNNY     50  23  34 W8        30.43S
HORSESHOE BAY  FAIR      52  23  31 W8        30.40R
KERRVILLE      SUNNY     49  24  37 NW6       30.41S
FREDERICKSBRG  SUNNY     54  22  29 W7        30.39F
ROCKSPRINGS    SUNNY     55  19  24 NW8       30.44S
HONDO          SUNNY     61  21  21 N14       30.44R
UVALDE         SUNNY     60  24  24 N8        30.44R
DEL RIO        SUNNY     54  21  27 NW10      30.44S
$$

SOUTHEAST TEXAS

CITY           SKY/WX    TMP DP  RH WIND       PRES   REMARKS
COLLEGE STN    SUNNY     50  15  24 NW6       30.38R
CALDWELL       SUNNY     50   9  18 NW6       30.41S
CROCKETT       SUNNY     48  18  29 W9        30.36F
BRENHAM        SUNNY     51  19  28 W6        30.39S
HUNTSVILLE     SUNNY     50  14  23 NW10      30.35S
CONROE         SUNNY     50  12  21 NW12      30.37R
HOUSTON BUSH   MOSUNNY   52  14  22 N14G20    30.38R
HOUSTON HOBBY  SUNNY     52  11  19 NW12      30.37S
PERLAND        SUNNY     53  11  18 N13       30.39S
WHARTON        SUNNY     53  20  26 N8        30.41S
$$

THE UPPER TEXAS COAST

CITY           SKY/WX    TMP DP  RH WIND       PRES   REMARKS
ORANGE         SUNNY     49   8  19 NW9G21    30.34S
PORT ARTHUR    SUNNY     51  18  27 W15       30.33R
GALVESTON      SUNNY     52  21  29 NW12      30.38R
ANGLETON       SUNNY     53  18  25 NW10G17   30.40R
BAY CITY       SUNNY     53  24  33 NW7       30.40S
$$

TEXAS COASTAL BEND, RIO GRANDE PLAINS DEEP SOUTH TEXAS

CITY           SKY/WX    TMP DP  RH WIND       PRES   REMARKS
VICTORIA       SUNNY     58  22  24 N8        30.42R
BEEVILLE       FAIR      60  27  28 N7        30.42R
ROCKPORT       SUNNY     60  29  30 N9        30.42R
PORT ARANSAS   SUNNY     56  33  42 N12       30.42R
PORT LAVACA    SUNNY     55  25  30 N13       30.42R
CORPUS CHRISTI MOSUNNY   60  27  28 N9        30.42R
KINGSVILLE NAS MOSUNNY   61  30  31 NW8       30.42S
COTULLA        SUNNY     54  25  32 W6        30.44S
LAREDO         SUNNY     54  25  32 W5        30.45R
BROWNSVILLE    CLOUDY    59  32  36 N6        30.44R
PORT ISABEL    MOSUNNY   59  30  33 NW9       30.42S
HEBBRONVILLE   NOT AVBL
MCALLEN        MOSUNNY   62  27  26 NW6       30.45R
WESLACO        MOSUNNY   59  29  32 N7        30.43S
FALFURRIAS     SUNNY     63  21  20 N6        30.42S
EDINBURG       SUNNY     64  21  19 N7        30.44R
$$




USA.gov is the U.S. government's official web portal to all federal, state and local government web resources and services.